Weather History for KGBG - April, 2013

Change the Weather History Date:

Tuesday, April 2, 2013

  Actual Average Record
Temperature  
Mean Temperature 32 °F -  
Max Temperature 45 °F 54 °F 83 °F (1981)
Min Temperature 19 °F 34 °F 19 °F (2013)
Degree Days  
Heating Degree Days 33    
Moisture  
Dew Point 16 °F    
Average Humidity 57    
Maximum Humidity 87    
Minimum Humidity 22    
Precipitation  
Precipitation 0.00 in - - ()
Sea Level Pressure  
Sea Level Pressure 30.29 in    
Wind  
Wind Speed 7 mph (WNW)    
Max Wind Speed 18 mph    
Max Gust Speed 26 mph    
Visibility 10 miles    
Events      
Averages and records for this station are not official NWS values.
T = Trace of Precipitation, MM = Missing Value Source: NWS Daily Summary

Daily Weather History Graph

Daily Weather History Graph

Search for Another Location

Airport or City:

Trip Planner

Search our weather history database for the weather conditions in past years. The results will help you decide how hot, cold, wet, or windy it might be!

Date:

Astronomy

Apr. 02, 2013 Rise Set
Actual Time 6:43 AM CDT 7:27 PM CDT
Civil Twilight 6:15 AM CDT 7:55 PM CDT
Nautical Twilight 5:42 AM CDT 8:28 PM CDT
Astronomical Twilight 5:08 AM CDT 9:02 PM CDT
Moon 1:34 AM CDT (4/2) 11:32 AM CDT (4/2)
Length of Visible Light 13h 40m
Length of Day
12h 44m
Waning Gibbous, 55% of the Moon is Illuminated
Apr 2
Waning Gibbous
Apr 2
Last Quarter
Apr 10
New
Apr 18
First Quarter
Apr 25
Full

Hourly Weather History & Observations

Time (CDT) Temp. Windchill Dew Point Humidity Pressure Visibility Wind Dir Wind Speed Gust Speed Precip Events Conditions
12:15 AM 22.8 °F 18.2 °F 16.7 °F 77% 30.25 in 10.0 mi WNW 3.5 mph - N/A   Clear
12:35 AM 22.6 °F 18.0 °F 16.5 °F 77% 30.26 in 10.0 mi WNW 3.5 mph - N/A   Clear
12:55 AM 23.2 °F 16.0 °F 17.2 °F 78% 30.26 in 10.0 mi WNW 5.8 mph - N/A   Clear
1:15 AM 22.1 °F 17.4 °F 16.7 °F 80% 30.26 in 10.0 mi WNW 3.5 mph - N/A   Clear
1:35 AM 20.7 °F 13.0 °F 16.3 °F 83% 30.26 in 10.0 mi West 5.8 mph - N/A   Clear
1:55 AM 22.1 °F 15.9 °F 17.2 °F 82% 30.27 in 10.0 mi WNW 4.6 mph - N/A   Clear
2:15 AM 21.0 °F 13.4 °F 16.2 °F 81% 30.26 in 10.0 mi WNW 5.8 mph - N/A   Clear
2:35 AM 20.1 °F 12.3 °F 15.8 °F 83% 30.26 in 10.0 mi WNW 5.8 mph - N/A   Clear
2:55 AM 20.3 °F 11.5 °F 15.8 °F 83% 30.26 in 10.0 mi WNW 6.9 mph - N/A   Clear
3:15 AM 19.9 °F 13.4 °F 15.6 °F 83% 30.26 in 10.0 mi WNW 4.6 mph - N/A   Clear
3:35 AM 19.8 °F 13.2 °F 15.6 °F 84% 30.26 in 10.0 mi WNW 4.6 mph - N/A   Clear
3:55 AM 21.2 °F 12.6 °F 16.7 °F 83% 30.26 in 10.0 mi WNW 6.9 mph - N/A   Clear
4:15 AM 21.0 °F 12.4 °F 16.9 °F 84% 30.27 in 10.0 mi WNW 6.9 mph - N/A   Clear
4:35 AM 21.0 °F 13.4 °F 16.7 °F 83% 30.27 in 10.0 mi West 5.8 mph - N/A   Clear
4:55 AM 21.2 °F 12.6 °F 17.2 °F 85% 30.27 in 10.0 mi WNW 6.9 mph - N/A   Clear
5:15 AM 20.8 °F 13.2 °F 16.5 °F 83% 30.27 in 10.0 mi West 5.8 mph - N/A   Clear
5:35 AM 20.3 °F 13.8 °F 16.5 °F 85% 30.27 in 10.0 mi WNW 4.6 mph - N/A   Clear
5:55 AM 20.7 °F 11.9 °F 17.1 °F 86% 30.28 in 10.0 mi WNW 6.9 mph - N/A   Clear
6:15 AM 20.8 °F 14.4 °F 17.2 °F 86% 30.29 in 10.0 mi WNW 4.6 mph - N/A   Clear
6:35 AM 20.3 °F 12.5 °F 16.7 °F 86% 30.29 in 10.0 mi NW 5.8 mph - N/A   Clear
6:55 AM 20.7 °F 13.0 °F 17.4 °F 87% 30.29 in 10.0 mi NW 5.8 mph - N/A   Clear
7:15 AM 21.2 °F 14.9 °F 18.0 °F 87% 30.31 in 10.0 mi NW 4.6 mph - N/A   Clear
7:35 AM 22.8 °F - 19.4 °F 87% 30.31 in 10.0 mi Calm Calm - N/A   Clear
7:55 AM 25.5 °F 21.3 °F 21.0 °F 83% 30.31 in 10.0 mi WNW 3.5 mph - N/A   Clear
8:15 AM 27.9 °F 21.5 °F 22.6 °F 81% 30.32 in 10.0 mi NW 5.8 mph - N/A   Clear
8:35 AM 29.5 °F 23.4 °F 22.8 °F 76% 30.32 in 10.0 mi NW 5.8 mph - N/A   Clear
8:55 AM 30.7 °F 24.9 °F 22.6 °F 72% 30.33 in 10.0 mi NW 5.8 mph - N/A   Clear
9:15 AM 32.0 °F 27.5 °F 21.2 °F 64% 30.33 in 10.0 mi NNW 4.6 mph - N/A   Clear
9:35 AM 32.7 °F - 19.0 °F 57% 30.33 in 10.0 mi Calm Calm - N/A   Clear
9:55 AM 34.0 °F - 19.0 °F 54% 30.33 in 10.0 mi Calm Calm - N/A   Clear
10:15 AM 34.5 °F 29.4 °F 16.5 °F 48% 30.33 in 10.0 mi West 5.8 mph - N/A   Clear
10:35 AM 35.8 °F 31.9 °F 16.2 °F 45% 30.33 in 10.0 mi NW 4.6 mph - N/A   Clear
10:55 AM 36.7 °F 31.2 °F 15.1 °F 41% 30.33 in 10.0 mi West 6.9 mph - N/A   Clear
11:15 AM 37.8 °F 34.2 °F 13.5 °F 37% 30.32 in 10.0 mi WNW 4.6 mph - N/A   Clear
11:35 AM 38.5 °F 31.6 °F 13.5 °F 36% 30.32 in 10.0 mi West 10.4 mph - N/A   Clear
11:55 AM 39.9 °F 34.5 °F 12.0 °F 32% 30.32 in 10.0 mi West 8.1 mph - N/A   Clear
12:15 PM 40.5 °F 35.1 °F 11.3 °F 30% 30.31 in 10.0 mi WNW 8.1 mph - N/A   Clear
12:35 PM 41.4 °F 34.0 °F 11.3 °F 29% 30.30 in 10.0 mi West 13.8 mph 20.7 mph N/A   Clear
12:55 PM 41.9 °F 34.0 °F 9.1 °F 26% 30.29 in 10.0 mi West 16.1 mph 20.7 mph N/A   Clear
1:15 PM 43.3 °F 37.7 °F 10.2 °F 26% 30.29 in 10.0 mi West 10.4 mph 16.1 mph N/A   Clear
1:35 PM 42.8 °F 37.5 °F 9.7 °F 26% 30.28 in 10.0 mi West 9.2 mph 20.7 mph N/A   Clear
1:55 PM 43.9 °F 36.8 °F 9.5 °F 25% 30.28 in 10.0 mi WNW 15.0 mph 23.0 mph N/A   Clear
2:15 PM 43.9 °F 37.9 °F 8.6 °F 24% 30.27 in 10.0 mi West 11.5 mph 23.0 mph N/A   Clear
2:35 PM 44.4 °F 38.2 °F 10.2 °F 25% 30.27 in 10.0 mi WNW 12.7 mph 20.7 mph N/A   Clear
2:55 PM 44.4 °F 38.2 °F 8.6 °F 23% 30.26 in 10.0 mi WNW 12.7 mph 20.7 mph N/A   Clear
3:15 PM 43.9 °F 38.3 °F 8.6 °F 24% 30.26 in 10.0 mi West 10.4 mph 24.2 mph N/A   Clear
3:35 PM 45.1 °F 38.8 °F 8.1 °F 22% 30.26 in 10.0 mi WNW 13.8 mph 21.9 mph N/A   Clear
3:55 PM 44.6 °F 39.2 °F 10.2 °F 25% 30.25 in 10.0 mi WNW 10.4 mph - N/A   Clear
4:15 PM 44.8 °F 38.3 °F 11.7 °F 26% 30.26 in 10.0 mi West 13.8 mph 23.0 mph N/A   Clear
4:35 PM 44.4 °F 38.2 °F 13.8 °F 29% 30.25 in 10.0 mi West 12.7 mph - N/A   Clear
4:55 PM 44.8 °F 37.1 °F 15.4 °F 31% 30.25 in 10.0 mi WNW 18.4 mph 26.5 mph N/A   Scattered Clouds
5:15 PM 44.1 °F 38.6 °F 15.8 °F 32% 30.25 in 10.0 mi NW 10.4 mph 19.6 mph N/A   Scattered Clouds
5:35 PM 43.2 °F 36.2 °F 16.5 °F 34% 30.25 in 10.0 mi WNW 13.8 mph 19.6 mph N/A   Clear
5:55 PM 43.7 °F 37.3 °F 17.2 °F 35% 30.25 in 10.0 mi WNW 12.7 mph 19.6 mph N/A   Clear
6:15 PM 42.8 °F 36.2 °F 16.7 °F 35% 30.26 in 10.0 mi NW 12.7 mph 18.4 mph N/A   Clear
6:35 PM 42.1 °F 35.2 °F 17.8 °F 38% 30.26 in 10.0 mi NW 12.7 mph - N/A   Clear
6:55 PM 41.0 °F 34.3 °F 17.6 °F 39% 30.27 in 10.0 mi NW 11.5 mph - N/A   Scattered Clouds
7:15 PM 39.2 °F 32.0 °F 18.5 °F 43% 30.27 in 10.0 mi NNW 11.5 mph 16.1 mph N/A   Clear
7:35 PM 38.1 °F 31.2 °F 18.3 °F 45% 30.28 in 10.0 mi NW 10.4 mph 16.1 mph N/A   Clear
7:55 PM 36.3 °F 30.1 °F 18.3 °F 48% 30.28 in 10.0 mi NW 8.1 mph - N/A   Clear
8:15 PM 34.5 °F 27.9 °F 18.9 °F 53% 30.29 in 10.0 mi NNW 8.1 mph - N/A   Clear
8:35 PM 32.7 °F 26.4 °F 19.0 °F 57% 30.30 in 10.0 mi NNW 6.9 mph - N/A   Clear
8:55 PM 30.9 °F 25.2 °F 18.5 °F 60% 30.30 in 10.0 mi NNW 5.8 mph - N/A   Clear
9:15 PM 29.7 °F 23.7 °F 18.5 °F 63% 30.31 in 10.0 mi NNW 5.8 mph - N/A   Clear
9:35 PM 29.3 °F 22.3 °F 18.3 °F 64% 30.32 in 10.0 mi NNW 6.9 mph - N/A   Clear
9:55 PM 28.8 °F 20.9 °F 18.3 °F 65% 30.32 in 10.0 mi NNW 8.1 mph - N/A   Clear
10:15 PM 27.5 °F 20.2 °F 18.1 °F 68% 30.32 in 10.0 mi NNW 6.9 mph - N/A   Clear
10:35 PM 30.4 °F 25.6 °F 18.5 °F 61% 30.33 in 10.0 mi NNW 4.6 mph - N/A   Clear
10:55 PM 29.1 °F 24.1 °F 18.0 °F 63% 30.33 in 10.0 mi North 4.6 mph - N/A   Clear
11:15 PM 27.5 °F 21.1 °F 18.0 °F 67% 30.34 in 10.0 mi North 5.8 mph - N/A   Clear
11:35 PM 26.6 °F 21.2 °F 18.0 °F 70% 30.34 in 10.0 mi NNW 4.6 mph - N/A   Clear
11:55 PM 27.5 °F 21.1 °F 18.1 °F 68% 30.33 in 10.0 mi NNW 5.8 mph - N/A   Clear